map of MAA home
MAA - Airport
Location
City:  Chennai/Madras, Tamil Nadu, India
Name:Meenambakkam
ICAO:VOMM
IATA:MAA

Details
Type:Airport (Aerodrome, Airfield)
Use:Public/Civil, International (customs port of entry)
Latitude:1259'40"N (12.994414)
Longitude:8010'50"E (80.180517)
Datum:WGS 1984
Elevation:52 ft (16 m)
Variation:1.20W (WMM2015 magnetic declination)
0.07 annual change
Runways:2
Longest:12001 × 148 ft (3658 × 45 m), paved

Time
Time Zone:UTC+5:30
Local Time:

Weather
METAR:VOMM 140400Z 02006KT 5000 HZ FEW018 28/24 Q1016 NOSIG
TAF:VOMM 132300Z 1400/1506 00000KT 1500 BR FEW018
BECMG 1403/1404 04010KT 3000 BR
BECMG 1406/1407 6000
BECMG 1418/1419 00000KT 4000 HZ
BECMG 1500/1501 1500 BR
BECMG 1503/1504 04010KT 3000 BR

Related Locations
Nearby:
Farthest:SEII: 11410 mi / 18362 km
Puerto Villamil [General Villamil], Isabela Island, W, EC

Find:

   beyond  
but within

Other Information
Maps:
NOTAMs:
Links:
Sources:

  
flag of India   

Sectional Chart

Flight Planning
at skyvector.com

Satellite Image

Google Maps Satellite view

 

Copyright © 2004-2017 Karl L. Swartz. All rights reserved.
The Great Circle Mapper name and logo are trademarks of the Great Circle Mapper.
All other trademarks mentioned herein belong to their respective owners.
Please see credits for attibutions and further copyright information.

  Follow gcmap on Facebook Follow gcmap on Twitter Follow gcmap on Google+ GCmap on LinkedIn

hCard Microformat

Geo Microformat